Flag for United Kingdom Weather past 2 weeks in Newcastle upon Tyne, England, United Kingdom

Now
48 °F

Partly sunny.


Feels Like: 40 °F
Forecast: N/A
Wind: 24 mph from Southwest

Location: Newcastle

Current Time: Mar 6, 2015 at 2:49:27 PM

Latest Report: Mar 6, 2015 at 2:20 PM


Visibility: N/A

Pressure: 30.18 "Hg

Humidity: 66%

Dew point: 37 °F

Location of Newcastle upon TyneLocation

Historic Weather in Newcastle upon Tyne — Graph

°F

Newcastle upon Tyne temperature yesterday

Maximum temperature yesterday: 50 °F (at 2:50 PM)
Minimum temperature yesterday: 41 °F (at 12:20 AM)
Average temperature yesterday: 46 °F

Past Weeks' High & Low Weather Summary

 TemperatureHumidityPressure
High52 °F (Feb 26, 2:20 AM)100% (Feb 22, 4:50 AM)30.51 "Hg (Feb 22, 4:50 AM)
Low30 °F (Feb 22, 12:50 AM)50% (Mar 4, 3:20 PM)28.77 "Hg (Feb 23, 6:50 PM)
Average41 °F77%29.63 "Hg
* Reported Feb 19 1:20 PM — Mar 6 1:50 PM, Newcastle upon Tyne, Weather by CustomWeather, © 2015

Note: Actual official high and low records may vary slightly from our data, if they occured in-between our weather recording intervals... More about our weather records

Advertising

Newcastle upon Tyne weather history for previous 24 hours

 ConditionsComfort  
Time TempWeatherWind HumidityBarometerVisibility
1:50 PM
Fri, Mar 6
48 °FPartly sunny.24 mph66%30.18 "HgN/A
1:20 PM48 °FPartly sunny.22 mph66%30.21 "HgN/A
12:50 PM48 °FScattered clouds.21 mph66%30.21 "HgN/A
11:50 AM52 °FScattered clouds.20 mph62%30.24 "HgN/A
11:20 AM48 °FScattered clouds.23 mph66%30.27 "HgN/A
10:20 AM48 °FScattered clouds.22 mph66%30.24 "HgN/A
9:50 AM48 °FPartly sunny.18 mph66%30.27 "HgN/A
9:20 AM46 °FPartly sunny.14 mph71%30.27 "HgN/A
8:50 AM46 °FPartly sunny.13 mph71%30.30 "HgN/A
8:20 AM46 °FPartly sunny.10 mph66%30.30 "HgN/A
7:50 AM46 °FPartly sunny.9 mph66%30.30 "HgN/A
7:20 AM46 °FScattered clouds.13 mph71%30.33 "HgN/A
6:50 AM45 °FScattered clouds.9 mph76%30.30 "HgN/A
6:20 AM46 °FPassing clouds.13 mph71%30.30 "HgN/A
5:50 AM46 °FPassing clouds.10 mph76%30.33 "HgN/A
5:20 AM46 °FPassing clouds.13 mph76%30.33 "HgN/A
4:20 AM46 °FPassing clouds.10 mph76%30.33 "HgN/A
3:50 AM46 °FPassing clouds.18 mph76%30.33 "HgN/A
2:50 AM46 °FPassing clouds.14 mph76%30.36 "HgN/A
2:20 AM46 °FPassing clouds.13 mph76%30.36 "HgN/A
1:50 AM46 °FPassing clouds.12 mph76%30.39 "HgN/A
1:20 AM48 °FPassing clouds.10 mph76%30.39 "HgN/A
12:50 AM46 °FPassing clouds.12 mph82%30.36 "HgN/A
12:20 AM46 °FPassing clouds.10 mph76%30.36 "HgN/A
11:50 PM
Thu, Mar 5
46 °FPassing clouds.13 mph82%30.39 "HgN/A
11:20 PM46 °FPassing clouds.13 mph76%30.39 "HgN/A
10:50 PM46 °FPassing clouds.12 mph76%30.39 "HgN/A
10:20 PM46 °FPassing clouds.10 mph76%30.39 "HgN/A
9:50 PM46 °FPassing clouds.10 mph76%30.39 "HgN/A
9:20 PM46 °FPassing clouds.14 mph71%30.39 "HgN/A
8:50 PM46 °FPassing clouds.15 mph71%30.39 "HgN/A
8:20 PM48 °FPassing clouds.12 mph66%30.39 "HgN/A
7:50 PM46 °FPassing clouds.13 mph71%30.39 "HgN/A
7:20 PM46 °FPassing clouds.14 mph71%30.39 "HgN/A
6:50 PM48 °FPassing clouds.15 mph66%30.39 "HgN/A
6:20 PM48 °FPassing clouds.24 mph66%30.39 "HgN/A
5:50 PM48 °FPassing clouds.17 mph66%30.39 "HgN/A
5:20 PM48 °FPassing clouds.17 mph66%30.39 "HgN/A
4:50 PM50 °FPassing clouds.18 mph58%30.39 "HgN/A
4:20 PM50 °FPassing clouds.21 mph62%30.39 "HgN/A
3:50 PM50 °FPassing clouds.25 mph62%30.36 "HgN/A
3:20 PM50 °FPassing clouds.29 mph62%30.36 "HgN/A
2:50 PM50 °FScattered clouds.25 mph62%30.36 "HgN/A
2:20 PM48 °FScattered clouds.21 mph66%30.39 "HgN/A
Weather by CustomWeather, © 2015

See weather overviewHow to use our weather pages